• In Moldova, Republic
  • List of Countries
  • For 7 days
  • Water Temperature
  • Satellite Maps
  • Weather Map
  • Weather Widgets
  • user-avatar
    Login

    Hourly Weather Ondjiwa

    Today, 28 May, Sunday

    Time Temperature Precipitation Wind Pressure Humidity
    00:00 +18°C° 0 mm 2 mps 669 mmHg 35%
    01:00 +19°C° 0 mm 2 mps 669 mmHg 36%
    02:00 +18°C° 0 mm 2 mps 669 mmHg 36%
    03:00 +17°C° 0 mm 2 mps 669 mmHg 36%
    04:00 +16°C° 0 mm 2 mps 669 mmHg 36%
    05:00 +16°C° 0 mm 2 mps 669 mmHg 35%
    06:00 +16°C° 0 mm 2 mps 669 mmHg 35%
    07:00 +17°C° 0 mm 2 mps 670 mmHg 34%
    08:00 +20°C° 0 mm 2 mps 671 mmHg 30%
    09:00 +24°C° 0 mm 2 mps 671 mmHg 25%
    10:00 +28°C° 0 mm 3 mps 672 mmHg 20%
    11:00 +29°C° 0 mm 2 mps 672 mmHg 20%
    12:00 +31°C° 0 mm 2 mps 672 mmHg 19%
    13:00 +34°C° 0 mm 2 mps 671 mmHg 18%
    14:00 +32°C° 0 mm 2 mps 671 mmHg 19%
    15:00 +32°C° 0 mm 2 mps 670 mmHg 20%
    16:00 +31°C° 0 mm 2 mps 670 mmHg 21%
    17:00 +29°C° 0 mm 2 mps 669 mmHg 26%
    18:00 +27°C° 0 mm 3 mps 669 mmHg 30%
    19:00 +25°C° 0 mm 3 mps 669 mmHg 35%
    20:00 +25°C° 0 mm 3 mps 670 mmHg 35%
    21:00 +25°C° 0 mm 3 mps 670 mmHg 35%
    22:00 +24°C° 0 mm 3 mps 670 mmHg 36%
    23:00 +24°C° 0 mm 3 mps 670 mmHg 36%

    Tomorrow, 29 May, Monday

    Time Temperature Precipitation Wind Pressure Humidity
    00:00 +22°C° 0 mm 3 mps 670 mmHg 36%
    01:00 +21°C° 0 mm 4 mps 670 mmHg 36%
    02:00 +20°C° 0 mm 4 mps 670 mmHg 37%
    03:00 +20°C° 0 mm 3 mps 669 mmHg 37%
    04:00 +19°C° 0 mm 3 mps 669 mmHg 37%
    05:00 +18°C° 0 mm 3 mps 669 mmHg 37%
    06:00 +18°C° 0 mm 3 mps 670 mmHg 37%
    07:00 +17°C° 0 mm 3 mps 670 mmHg 37%
    08:00 +20°C° 0 mm 4 mps 671 mmHg 31%
    09:00 +23°C° 0 mm 4 mps 672 mmHg 26%
    10:00 +27°C° 0 mm 5 mps 672 mmHg 20%
    11:00 +29°C° 0 mm 4 mps 672 mmHg 20%
    12:00 +30°C° 0 mm 4 mps 672 mmHg 19%
    13:00 +33°C° 0 mm 4 mps 671 mmHg 18%
    14:00 +33°C° 0 mm 3 mps 671 mmHg 18%
    15:00 +32°C° 0 mm 2 mps 670 mmHg 19%
    16:00 +32°C° 0 mm 2 mps 670 mmHg 19%
    17:00 +29°C° 0 mm 2 mps 670 mmHg 22%
    18:00 +27°C° 0 mm 2 mps 669 mmHg 25%
    19:00 +24°C° 0 mm 3 mps 669 mmHg 29%
    20:00 +24°C° 0 mm 3 mps 670 mmHg 28%
    21:00 +23°C° 0 mm 4 mps 670 mmHg 27%
    22:00 +23°C° 0 mm 5 mps 671 mmHg 27%
    23:00 +23°C° 0 mm 5 mps 671 mmHg 28%

    Day after tomorrow, 30 May, Tuesday

    Time Temperature Precipitation Wind Pressure Humidity
    00:00 +22°C° 0 mm 4 mps 671 mmHg 29%
    01:00 +22°C° 0 mm 4 mps 671 mmHg 30%
    02:00 +21°C° 0 mm 3 mps 671 mmHg 32%
    03:00 +20°C° 0 mm 3 mps 670 mmHg 34%
    04:00 +19°C° 0 mm 2 mps 670 mmHg 36%
    05:00 +18°C° 0 mm 2 mps 670 mmHg 38%
    06:00 +17°C° 0 mm 3 mps 670 mmHg 39%
    07:00 +17°C° 0 mm 3 mps 671 mmHg 41%
    08:00 +20°C° 0 mm 3 mps 671 mmHg 35%
    09:00 +23°C° 0 mm 4 mps 672 mmHg 29%
    10:00 +27°C° 0 mm 5 mps 673 mmHg 23%
    11:00 +29°C° 0 mm 5 mps 673 mmHg 21%
    12:00 +30°C° 0 mm 4 mps 672 mmHg 20%
    13:00 +33°C° 0 mm 4 mps 672 mmHg 18%
    14:00 +33°C° 0 mm 4 mps 671 mmHg 18%
    15:00 +31°C° 0 mm 3 mps 671 mmHg 19%
    16:00 +31°C° 0 mm 3 mps 670 mmHg 19%
    17:00 +28°C° 0 mm 3 mps 670 mmHg 23%
    18:00 +26°C° 0 mm 3 mps 670 mmHg 27%
    19:00 +22°C° 0 mm 3 mps 670 mmHg 31%
    20:00 +22°C° 0 mm 3 mps 670 mmHg 32%
    21:00 +21°C° 0 mm 3 mps 670 mmHg 34%
    22:00 +20°C° 0 mm 3 mps 670 mmHg 35%
    23:00 +20°C° 0 mm 3 mps 670 mmHg 37%

    31 May, Wednesday

    Time Temperature Precipitation Wind Pressure Humidity
    00:00 +19°C° 0 mm 3 mps 670 mmHg 38%
    01:00 +19°C° 0 mm 4 mps 670 mmHg 39%
    02:00 +18°C° 0 mm 3 mps 670 mmHg 43%
    03:00 +18°C° 0 mm 3 mps 670 mmHg 47%
    04:00 +17°C° 0 mm 3 mps 670 mmHg 50%
    05:00 +17°C° 0 mm 3 mps 670 mmHg 52%
    06:00 +16°C° 0 mm 3 mps 670 mmHg 54%
    07:00 +16°C° 0 mm 3 mps 671 mmHg 56%
    08:00 +19°C° 0 mm 4 mps 672 mmHg 47%
    09:00 +23°C° 0 mm 5 mps 672 mmHg 39%
    10:00 +27°C° 0 mm 6 mps 673 mmHg 30%
    11:00 +28°C° 0 mm 5 mps 673 mmHg 26%
    12:00 +30°C° 0 mm 4 mps 672 mmHg 23%
    13:00 +32°C° 0 mm 4 mps 672 mmHg 20%
    14:00 +31°C° 0 mm 3 mps 671 mmHg 19%
    15:00 +31°C° 0 mm 3 mps 671 mmHg 19%
    16:00 +31°C° 0 mm 3 mps 670 mmHg 18%
    17:00 +28°C° 0 mm 3 mps 670 mmHg 22%
    18:00 +25°C° 0 mm 3 mps 670 mmHg 26%
    19:00 +21°C° 0 mm 3 mps 670 mmHg 29%
    20:00 +20°C° 0 mm 3 mps 670 mmHg 30%
    21:00 +20°C° 0 mm 3 mps 670 mmHg 31%
    22:00 +19°C° 0 mm 3 mps 671 mmHg 32%
    23:00 +18°C° 0 mm 3 mps 670 mmHg 34%

    1 June, Thursday

    Time Temperature Precipitation Wind Pressure Humidity
    00:00 +17°C° 0 mm 3 mps 670 mmHg 36%
    01:00 +17°C° 0 mm 3 mps 670 mmHg 39%
    02:00 +16°C° 0 mm 3 mps 670 mmHg 42%
    03:00 +16°C° 0 mm 3 mps 669 mmHg 45%
    04:00 +14°C° 0 mm 3 mps 669 mmHg 48%
    05:00 +14°C° 0 mm 3 mps 670 mmHg 49%
    06:00 +14°C° 0 mm 3 mps 670 mmHg 51%
    07:00 +14°C° 0 mm 3 mps 671 mmHg 53%
    08:00 +18°C° 0 mm 4 mps 672 mmHg 44%
    09:00 +22°C° 0 mm 5 mps 673 mmHg 35%
    10:00 +26°C° 0 mm 6 mps 673 mmHg 26%
    11:00 +27°C° 0 mm 5 mps 673 mmHg 23%
    12:00 +29°C° 0 mm 4 mps 672 mmHg 20%
    13:00 +30°C° 0 mm 3 mps 671 mmHg 17%
    14:00 +30°C° 0 mm 3 mps 671 mmHg 17%
    15:00 +30°C° 0 mm 3 mps 670 mmHg 17%
    16:00 +30°C° 0 mm 3 mps 670 mmHg 17%
    17:00 +27°C° 0 mm 3 mps 670 mmHg 21%
    18:00 +24°C° 0 mm 3 mps 670 mmHg 25%
    19:00 +20°C° 0 mm 3 mps 669 mmHg 30%
    20:00 +19°C° 0 mm 3 mps 669 mmHg 31%
    21:00 +19°C° 0 mm 3 mps 670 mmHg 33%
    22:00 +18°C° 0 mm 3 mps 670 mmHg 34%
    23:00 +17°C° 0 mm 3 mps 670 mmHg 36%

    2 June, Friday

    Time Temperature Precipitation Wind Pressure Humidity
    00:00 +17°C° 0 mm 3 mps 669 mmHg 37%
    01:00 +16°C° 0 mm 3 mps 669 mmHg 39%
    02:00 +14°C° 0 mm 3 mps 669 mmHg 40%
    03:00 +14°C° 0 mm 3 mps 669 mmHg 42%
    04:00 +13°C° 0 mm 3 mps 669 mmHg 43%
    05:00 +13°C° 0 mm 3 mps 669 mmHg 44%
    06:00 +13°C° 0 mm 3 mps 670 mmHg 45%
    07:00 +13°C° 0 mm 3 mps 670 mmHg 45%
    08:00 +17°C° 0 mm 4 mps 671 mmHg 38%
    09:00 +21°C° 0 mm 4 mps 672 mmHg 30%
    10:00 +26°C° 0 mm 5 mps 672 mmHg 23%
    11:00 +27°C° 0 mm 4 mps 672 mmHg 20%
    12:00 +29°C° 0 mm 4 mps 671 mmHg 18%
    13:00 +30°C° 0 mm 3 mps 671 mmHg 15%
    14:00 +30°C° 0 mm 3 mps 670 mmHg 15%
    15:00 +30°C° 0 mm 2 mps 670 mmHg 15%
    16:00 +30°C° 0 mm 2 mps 669 mmHg 15%
    17:00 +27°C° 0 mm 2 mps 669 mmHg 19%
    18:00 +23°C° 0 mm 2 mps 669 mmHg 22%
    19:00 +19°C° 0 mm 2 mps 669 mmHg 26%
    20:00 +19°C° 0 mm 2 mps 669 mmHg 28%
    21:00 +18°C° 0 mm 2 mps 669 mmHg 29%
    22:00 +17°C° 0 mm 3 mps 669 mmHg 30%
    23:00 +17°C° 0 mm 3 mps 669 mmHg 31%
    Show more